Location: ???????
(55.4362°N, 38.1183°E)
Time: 02:10:23
(UTC+00:00)

METEOR M2 - Pass Details

Date: 06 December 2021
Orbit: 818 x 827 km, 98.4° (Epoch: 28 January)

Event Time Altitude Azimuth Distance (km) Brightness Sun altitude
Rises 17:00:43 0° 202° (SSW) 3,357 ? -32.8°
Reaches altitude 10° 17:03:29 10° 216° (SW) 2,428 ? -33.2°
Maximum altitude 17:07:51 25° 270° (W) 1,626 ? -33.8°
Drops below altitude 10° 17:12:14 10° 325° (NW) 2,438 ? -34.4°
Sets 17:15:02 0° 338° (NNW) 3,374 ? -34.8°
